Warning: Javascript must be enabled to use all the features on this page!


Page Loading - Please Wait...

Click to hideNews Bulletins

Peak Streamflow for the Nation

USGS 10039500 BEAR RIVER AT BORDER, WY

Bear Lake County, Idaho
Hydrologic Unit Code 16010102
Latitude  42°12'40", Longitude 111°03'11" NAD27
Drainage area 2,480  square miles
Gage datum 6,051.63 feet above NGVD29
Output formats
Table
Graph
Tab-separated file
peakfq (watstore) format
Reselect output format
Water
Year
Date Gage
Height
(feet)
Stream-
flow
(cfs)
1938 1938-05-19 6.22 1,7805
1939 1939-03-23 6.67 1,9505
1940 1940-03-01   2401,2,5
1941 1941-06-16 5.62 1,4705
1942 1942-04-08 6.89 2,0405
1943 1943-05-06 6.69 1,9005
1944 1944-04-10 6.30 1,8605
1945 1945-06-10 5.63 1,4005
1946 1946-05-01 7.04 2,0205
1947 1947-06-18 6.89 2,0405
1948 1948-05-30 6.86 2,0205
1949 1949-05-22 5.86 1,5605
1950 1950-06-09 8.77 2,9005
1951 1951-06-07 7.27 2,3005
1952 1952-05-11 8.89 3,6805
1953 1953-06-22 6.14 1,8605
1954 1954-05-11 3.20 6305
1955 1955-06-06 3.50 7535
1956 1956-03-27 8.62 3,6205
1957 1957-06-22 7.59 2,6305
1958 1958-06-02 5.63 1,5205
1959 1959-04-06 4.13 9245
1960 1960-03-26 5.17 1,4105
1961 1961-03-18   3001,5
1962 1962-04-03 8.19 3,3605
1963 1963-06-17 4.102 9045
1964 1964-06-05 6.73 2,0005
1965 1965-06-22 8.66 3,2605
1966 1966-03-30   2,5001,5
1967 1967-06-22 7.68 2,5105
1968 1968-06-15 7.68 2,7505
1969 1969-04-04   3,6001,5
1970 1970-06-15 5.51 1,4505
1971 1971-06-20 8.09 2,8105
1972 1972-06-18 8.64 3,2906
1973 1973-05-21 6.57 1,8006
1974 1974-05-11 7.15 2,0406
1975 1975-06-19 7.42 2,3606
1976 1976-04-06 8.72 3,6206
1977 1976-11-15 2.14 2556
1978 1978-06-23 6.12 1,8806
1979 1979-05-30 3.98 7736
1980 1980-05-10 8.10 2,7006
1981 1981-05-27 4.13 9046
1982 1982-06-03   2,0101,6
1983 1983-06-07 9.69 4,8806
1984 1984-05-31 9.51 4,4306
1985 1985-04-11 7.62 2,3806
1986 1986-06-14   4,1801,6
1987 1987-05-24 4.54 9746
1988 1988-05-18 3.24 5616
1989 1989-06-13 3.23 5706
1990 1990-06-12 2.57 3816
1991 1991-06-08 6.25 1,7806
1992 1992-03-08   4561,6
1993 1993-05-23 7.01 1,9606
1994 1994-05-17 2.80 4416
1995 1995-06-16 7.15 2,4506
1996 1996-05-30 6.72 2,1806
1997 1997-06-20   3,2901,6
1998 1998-06-28 7.73 2,3806
1999 1999-06-09 8.13 2,8206
2000 2000-05-26 3.23 5386
2001 2001-03-27 3.69 7076
2002 2002-06-03 2.39 3426
2003 2003-05-30 3.05 5076
2004 2004-06-11 2.88 4316
2005 2005-05-18 6.05 1,4006
2006 2006-05-29 5.24 1,2206
2007 2007-03-16   8491,6
2008 2008-06-02 5.16 1,4206
2009 2009-06-27 6.81 1,9406
2010 2010-06-19 8.18 3,0106
2011 2011-06-27 9.38 3,8706
2012 2012-03-29 3.712 6236
2013 2013-05-19 2.70 3556
2014 2014-05-31 4.47 9546
2015 2015-06-13 4.21 8486
2016 2016-06-16 6.04 1,6506
2017 2017-03-25 8.78 3,2606
2018 2018-05-13 4.10 8256
2019 2019-06-08 6.12 1,6906
2020 2020-05-07 4.24 8586
?
  Peak Gage-Height Qualification Codes.
?
  Peak Streamflow Qualification Codes.